NOAA 16 DEB, 41359

Orbit data source: Space-Track

NOAA 16 DEB, 41359 is space debris in SSO originally from a launch on Thu, 21 Sep 2000 UTC launched from the Air Force Western Test Range (AFWTR). Debris objects in space refer to the collection of defunct objects orbiting the Earth. Examples of debris include non-operational satellites, rocket bodies, and fragments generated from explosions, collisions, or faulty payload assembly.

Loading next visibility...
Identifier
41359, 2000-055JC
Orbit
SSO
Country
Flag of USUS
Related business
Manufacturer
Unknown
Mission
Spacecraft
Bus & Motor
Unknown
Mass
Unknown
Launch date (UTC)
2000-09-21 (25 years ago)
Launch vehicle
Unknown
Launch site
Air Force Western Test Range (AFWTR)
Object type
Payload
Rocket body
Debris
Shape & HBR
Unknown shape, 0.1 m
Radar Cross Section
Small (<0.1 m²)

Expand to show TLE details & history
Last TLE update: 2 days ago

TLE from 2 days ago
0 NOAA 16 DEB
1 41359U 00055JC  26036.45236204  .00017280  00000-0  39516-2 0  9999
2 41359  98.9490 223.1398 0022333 113.9368 246.4170 14.55585781520870
Epoch: 2026-02-05T10:51Z
TLE epoch observation values (Epoch: 2026-02-05T10:51:24.080Z)
Latitude
0.00004°
Longitude
-75.31493°
Altitude
716.78 km
Speed
7.494 km/s
True Right ascension
14h 52m 33s
True Declination
0° 00' 00"
Sunlit
Object was in daylight at epoch
Visualization orbit readout
Latitude
Unknown
Longitude
Unknown
Altitude
Unknown
Speed
Unknown
Apparent Right ascension
Unknown
Apparent Declination
Unknown
Sunlit
N/A
Visualization observer readout
Local Sidereal Time
07:59:58
Azimuth
Unknown
Elevation
Unknown
Doppler factor
Unknown
Orbital elements
Apogee altitude
720.404 km
Perigee altitude
688.768 km
Semi-major axis
7,082.723 km
Eccentricity
0.00223
Inclination
98.949°
RAAN
223.1398°
Arg. of periapsis
113.9368°
True anomaly
246.18272°
Mean anomaly
246.417°
Eccentric anomaly
246.29983°
Mean motion
3.64119 °/min
Orbital period
98.87 mins
BSTAR
0.0039516
Loading maneuver chart data...
Computing Atmospheric mass density...

Documentation

Showing up to 5 results
|